Location: Allmend
(46.9852°N, 8.3710°E)
Time: 19:03:08
(UTC+00:00)

Daily predictions for brighter satellites

Satellite Brightness Start Highest point End
(mag) Time Altitude Azimuth Time Altitude Azimuth Time Altitude Azimuth
Meteor 2-15 Rocket 4.4 19:13:05 10° S 19:19:08 78° E 19:25:14 10° NNE
SJ-6B 3.0 19:15:58 10° S 19:19:49 79° WSW 19:23:48 10° NNW
CZ-2C R/B 4.4 19:18:54 10° N 19:23:48 38° WNW 19:28:47 10° SW
SL-08 ROCKET BODY 4.4 19:19:00 10° N 19:24:56 70° E 19:30:45 10° SSE
Cosmos 1408 Rocket 4.3 19:20:38 10° NNW 19:24:57 56° W 19:29:17 10° S
USA 290 3.6 19:24:33 10° N 19:27:20 25° ENE 19:30:05 10° ESE
Terra 4.2 19:27:13 10° NE 19:27:23 10° NE 19:27:31 10° NE
Cosmos 921 Rocket 4.3 19:24:20 10° NNW 19:28:20 39° WSW 19:32:14 10° S
Cosmos 1842 Rocket 4.0 19:24:47 10° SSW 19:29:14 68° W 19:33:44 10° N
Ariane Rocket 3.0 19:24:30 10° SSE 19:29:32 82° ENE 19:34:38 10° NNW
CREW DRAGON DEMO-1 DEB 4.4 19:27:10 10° WNW 19:29:34 29° N 19:31:57 10° ENE
Cosmos 2263 Rocket 3.8 19:27:09 10° WSW 19:32:21 39° NW 19:37:37 10° NNE
FALCON 9 DEB 3.6 19:29:52 10° WNW 19:32:48 43° SW 19:35:41 10° SE
Cosmos 1606 2.6 19:31:21 10° S 19:35:06 76° E 19:38:54 10° NNE
Cosmos 1844 Rocket 2.7 19:31:38 10° S 19:37:04 58° ESE 19:42:33 10° NNE
SPOT 1/Viking Rocket 4.4 19:36:13 10° SE 19:40:55 36° ENE 19:45:38 10° N
SL-4 R/B 2.7 19:37:07 10° WNW 19:41:23 53° SW 19:45:35 12° SE
Cosmos 1805 Rocket 3.6 19:38:24 10° N 19:42:44 67° E 19:47:04 10° SSE
Cosmos 1386 Rocket 4.5 19:38:29 10° N 19:44:29 67° E 19:50:32 10° SSE
X-37B 0.7 19:41:50 10° W 19:44:59 61° S 19:47:53 12° E
ARIANE 5 R/B 4.0 19:43:07 11° ESE 19:46:21 24° ENE 19:49:51 10° N
Cosmos 1633 Rocket 4.0 19:47:09 10° N 19:51:08 32° ENE 19:54:17 15° SE
Cosmos 1745 Rocket 4.0 19:45:30 10° N 19:51:44 77° E 19:57:53 10° SSE
SPOT 3 Rocket 3.6 19:49:13 10° SSE 19:54:20 72° ENE 19:59:30 10° N
Cosmos 1709 Rocket 4.3 19:48:35 10° N 19:54:32 49° ENE 19:59:46 13° SSE
Resurs 1-3 4.1 19:52:14 10° S 19:56:34 60° W 20:00:56 10° NNW
Cosmos 1743 Rocket 4.5 19:52:36 10° NNW 19:56:47 48° W 20:00:58 10° SSW
Landsat 7 3.9 19:52:36 11° SSE 19:57:07 65° ENE 20:01:51 10° N
Cosmos 1844 3.7 19:51:35 10° SSW 19:57:16 68° ESE 20:02:55 10° NNE
Cosmos 968 Rocket 3.6 19:52:49 10° SSW 19:58:04 82° WNW 20:03:20 10° NNE
BREEZE-M DEB (TANK) 4.0 19:54:39 10° W 19:58:54 68° SSW 20:06:54 11° ESE
ATLAS 5 CENTAUR R/B 2.5 19:54:54 10° NW 20:00:22 67° NE 20:05:41 16° SE
NOSS 3-3 (A) 4.5 19:57:07 10° S 20:02:08 33° ESE 20:07:42 10° NE
NOSS 3-3 (C) 4.5 19:57:14 10° S 20:02:15 32° ESE 20:07:48 10° NE
ATLAS 2AS CENTAUR R/B 4.5 19:58:25 10° NW 20:04:42 27° NNE 20:10:38 10° ENE
BREEZE M DEB (TANK) 4.3 20:00:48 10° WSW 20:04:46 82° NNW 20:18:43 10° ENE
Cosmos 1486 Rocket 4.1 20:00:15 10° SSW 20:05:35 87° WNW 20:10:59 10° NNE
IGS 5A 3.4 20:04:31 12° SSE 20:08:21 87° WSW 20:12:32 10° NNW
Meteor 1-26 Rocket 4.5 20:02:53 10° SSE 20:08:23 50° E 20:13:45 10° NNE
CARTOSAT-1 4.4 20:07:01 18° SE 20:09:42 36° ENE 20:13:40 10° N
Cosmos 1833 Rocket 3.8 20:04:55 10° NNW 20:09:59 32° NE 20:14:00 15° ESE
Cosmos 2315 Rocket 4.3 20:04:56 10° SSE 20:11:04 52° E 20:17:14 10° NNE
S3M 4.1 20:05:24 10° S 20:11:47 87° W 20:18:11 10° N
BREEZE-M R/B 1.5 20:10:32 10° WSW 20:13:05 65° SSE 20:15:12 13° ENE
Cosmos 1666 4.5 20:13:35 10° NNE 20:16:08 17° ENE 20:17:21 15° E
Cosmos 1666 Rocket 3.5 20:12:26 10° N 20:16:52 71° E 20:19:58 19° SSE
Meteor 2-17 Rocket 4.4 20:13:42 10° N 20:19:54 79° E 20:25:05 15° SSE
Cosmos 1933 3.4 20:18:09 10° SSW 20:22:12 78° W 20:26:15 10° N
USA 245 2.0 20:23:49 47° ESE 20:24:12 58° ENE 20:26:24 10° N
USA 305 4.2 20:20:35 10° NW 20:24:33 36° NNE 20:28:32 10° E
Cosmos 1242 Rocket 2.6 20:24:10 10° SSW 20:27:45 78° WNW 20:31:20 10° N
OBJECT-B 4.1 20:27:27 10° W 20:27:51 10° W 20:28:15 10° W
Cosmos 1437 Rocket 4.5 20:28:20 10° SW 20:31:51 33° WNW 20:35:28 10° N
BREEZE M DEB (TANK) 2.3 20:27:58 10° WNW 20:32:50 60° N 20:34:07 24° ENE
Cosmos 773 Rocket 4.1 20:28:38 10° NNW 20:33:57 67° ENE 20:37:01 25° SE
Resurs 01 Rocket 2.7 20:29:46 10° S 20:33:59 42° W 20:38:14 10° NNW
Spot 2 Rocket 3.4 20:34:12 22° SSE 20:37:28 80° ENE 20:42:33 10° NNW
SJ 16-02 2.7 20:38:19 22° ESE 20:38:31 22° E 20:41:56 10° NE
OE (NEXTSAT) 4.2 20:35:09 10° W 20:38:37 74° S 20:39:58 34° ESE
Sich 1 4.2 20:35:00 10° NNW 20:39:03 40° W 20:43:00 11° SSW
COSMOS 2406 3.6 20:35:01 10° NNW 20:40:34 51° ENE 20:43:43 25° ESE
Cosmos 2082 Rocket 3.4 20:38:14 10° NNW 20:43:12 31° NE 20:46:29 18° E
USA 306 4.0 20:39:44 10° NW 20:43:47 41° NNE 20:47:01 15° E
CZ-4C R/B 3.1 20:38:41 10° NW 20:45:47 70° NE 20:51:18 23° SE
Cosmos 1500 3.1 20:42:05 10° N 20:45:51 72° E 20:47:10 38° SSE
Cosmos 1782 2.9 20:43:16 17° SSW 20:46:17 77° W 20:50:17 10° N
ERS-1 Rocket 2.9 20:50:52 30° SSE 20:53:24 75° ENE 20:58:26 10° N
SPOT 5 3.0 20:52:52 30° SSE 20:55:23 76° ENE 21:00:38 10° N
H-2A R/B 4.0 20:53:11 10° NNE 20:57:10 40° E 20:57:49 37° ESE
Meteor 1-11 Rocket 4.4 20:54:27 10° N 21:00:10 44° ENE 21:02:44 29° ESE
Cosmos 1271 Rocket 3.5 21:00:22 35° ESE 21:00:37 35° E 21:04:17 10° NNE
USA 290 4.4 20:59:11 10° NW 21:01:37 20° WSW 21:02:58 16° SW
Cosmos 1151 Rocket 3.7 20:58:03 13° SSW 21:01:46 54° WNW 21:06:05 10° N
Cosmos 1777 Rocket 3.9 20:58:39 22° S 21:01:59 69° ESE 21:07:10 10° NNE
Terra 1.9 21:02:22 36° SE 21:04:12 66° ENE 21:08:56 10° N
CREW DRAGON DEMO-1 DEB 3.7 21:01:49 10° WNW 21:04:19 36° NNE 21:04:38 34° NNE
Cosmos 2278 Rocket 2.3 21:05:44 28° S 21:08:33 56° ESE 21:14:05 10° NE
USA 307 3.7 21:05:03 10° NW 21:09:13 49° NNE 21:11:26 25° E
CZ-4B DEB 4.1 21:16:06 81° E 21:16:08 81° ENE 21:19:21 10° N
Cosmos 1515 Rocket 3.6 21:17:35 34° SSW 21:19:27 78° W 21:23:52 10° N
X-37B 2.3 21:18:27 10° W 21:20:09 25° WSW 21:20:09 25° WSW
Cosmos 2084 3.3 21:17:53 13° SW 21:21:30 84° NW 21:25:46 10° NE
ARIANE 5 R/B 3.7 21:20:39 24° SSW 21:22:37 38° W 21:26:41 10° NNW
USA 308 3.4 21:18:31 10° NW 21:22:45 55° NNE 21:24:24 33° E
Cosmos 1869 Rocket 3.9 21:19:05 10° N 21:23:17 47° ENE 21:23:53 43° ESE
Cosmos 1536 3.5 21:19:40 10° N 21:23:30 39° ENE 21:23:48 38° E
Meteor 1-10 Rocket 4.1 21:22:59 36° S 21:25:21 76° E 21:31:00 10° NNE
Cosmos 1437 4.3 21:25:46 24° W 21:26:27 27° WNW 21:28:58 10° NNW
Cosmos 1943 Rocket 4.0 21:30:26 16° E 21:30:26 16° E 21:33:03 10° ENE
Cosmos 2154 Rocket 4.1 21:24:18 10° N 21:30:39 67° E 21:33:03 39° SSE
Cosmos 1812 3.5 21:31:32 33° SW 21:32:52 48° WNW 21:36:38 10° N
Cosmos 2184 Rocket 4.0 21:32:24 10° NNW 21:38:40 77° W 21:41:19 36° S
ALOS 2 4.4 21:38:42 18° ENE 21:39:36 19° ENE 21:42:42 10° NNE
Cosmos 1707 Rocket 4.5 21:42:54 34° E 21:42:54 34° E 21:46:37 10° NNE
NOSS 3-4 (A) 3.8 21:36:32 10° NW 21:43:30 81° NE 21:47:02 36° SE
NOSS 3-4 (C) 3.8 21:36:39 10° NW 21:43:37 80° NE 21:47:09 35° SE
ATLAS 5 CENTAUR R/B 3.7 21:39:57 10° WNW 21:44:53 29° WSW 21:47:13 23° SSW
Cosmos 2074 Rocket 4.2 21:40:21 10° NNW 21:46:36 66° W 21:49:23 34° SSW
Cosmos 1666 3.7 21:48:24 10° NNW 21:51:51 36° W 21:52:11 35° WSW
Cosmos 1833 Rocket 3.2 21:48:41 10° NW 21:54:06 48° WSW 21:55:42 38° SSW
Nadezhda 1 Rocket 3.9 21:51:52 40° S 21:54:22 89° ESE 22:00:41 10° N
Cosmos 1238 Rocket 4.4 21:50:13 10° N 21:56:19 44° ENE 21:57:51 37° ESE
Meteor 2-12 Rocket 4.5 21:50:54 10° NNW 21:56:58 73° W 21:59:02 43° SSW
ATLAS 2AS CENTAUR R/B 3.0 21:49:45 10° NW 21:57:10 64° NE 22:00:31 32° ESE
Cosmos 1743 3.3 21:53:28 10° N 21:56:52 47° ENE 21:56:52 47° ENE
BREEZE-M DEB (TANK) 4.4 21:57:55 10° WNW 21:57:58 10° WNW 21:57:58 10° WNW
USA 215 3.9 21:55:02 12° E 22:01:00 53° NNE 22:07:17 10° NW
BREEZE-M DEB (TANK) 4.3 21:56:01 10° W 22:02:43 40° NNW 22:04:40 17° NE
Cosmos 2297 4.2 22:03:58 40° ESE 22:04:01 40° ESE 22:09:18 10° NE
USA 305 2.8 22:00:34 10° WNW 22:04:41 81° W 22:04:41 81° W
Cosmos 2181 Rocket 4.4 22:07:22 40° ESE 22:08:30 44° E 22:14:17 10° NNE
Cosmos 158 Rocket 4.2 22:10:14 10° NNW 22:14:57 51° WSW 22:15:27 48° SW
Cosmos 1733 Rocket 3.3 22:11:53 10° N 22:16:02 56° ENE 22:16:02 56° ENE
SJ 16-02 2.4 22:15:15 30° WSW 22:16:49 42° WNW 22:21:04 10° N
Cosmos 2228 Rocket 3.9 22:17:34 39° WSW 22:18:29 44° WNW 22:22:46 10° N
Cosmos 1680 Rocket 3.4 22:15:22 10° NNW 22:20:43 85° WSW 22:21:27 67° S
Meteor 1-27 Rocket 4.1 22:18:37 39° SW 22:20:43 64° WNW 22:26:36 10° N
Cosmos 2341 Rocket 4.0 22:15:01 10° N 22:21:28 83° E 22:23:08 53° SSE
Cosmos 2366 rocket 4.3 22:16:35 10° N 22:22:39 56° ENE 22:24:07 45° ESE
USA 306 3.4 22:19:42 10° WNW 22:23:04 50° W 22:23:04 50° W
Cosmos 1937 Rocket 3.7 22:24:06 51° E 22:24:06 51° E 22:28:58 10° NNE
COSMOS 2406 4.5 22:19:50 10° NW 22:24:34 28° WSW 22:25:47 26° SW
Cosmos 1818 4.2 22:20:32 10° NNW 22:25:53 50° NE 22:27:40 36° E
Cosmos 2082 Rocket 2.5 22:22:06 10° NW 22:27:32 50° WSW 22:28:19 46° SW
CZ-4C R/B 3.9 22:27:35 10° NW 22:34:15 36° WSW 22:36:28 31° SW
Gbstr 26 Del rocket 4.3 22:27:55 10° WNW 22:35:15 67° NNE 22:40:00 17° E
ERBS 4.4 22:33:57 10° NW 22:36:44 24° NNE 22:37:05 24° NNE
Cosmos 858 Rocket 4.5 22:37:14 64° ESE 22:37:17 64° ESE 22:42:28 10° NNE
Cosmos 2218 Rocket 4.0 22:34:24 10° N 22:40:42 77° E 22:42:06 56° SSE
Meteor 1-19 Rocket 4.0 22:40:49 65° SE 22:41:15 68° E 22:46:37 10° NNE
Terra 3.9 22:41:15 15° WSW 22:42:24 16° W 22:45:21 10° NW
Okean 1 3.7 22:46:34 61° N 22:46:34 61° N 22:49:57 10° N
Cosmos 489 Rocket 4.5 22:41:39 10° NNW 22:47:53 73° ENE 22:49:22 53° SE
USA 307 4.3 22:45:07 10° WNW 22:47:30 29° W 22:47:30 29° W
Cosmos 1340 Rocket 4.0 22:46:22 10° NNW 22:49:40 35° WNW 22:49:40 35° WNW
Cosmos 1461 4.5 22:53:28 29° E 22:53:28 29° E 22:56:16 10° NE
Cosmos 2278 Rocket 3.9 22:48:07 10° WSW 22:52:58 29° NW 22:57:52 10° N
Spot 4 4.2 22:53:27 53° WSW 22:53:34 53° W 22:58:21 10° NNW
Cosmos 1862 Rocket 3.7 22:57:00 70° NW 22:57:00 70° NW 23:00:59 10° N
Cosmos 1898 Rocket 3.8 22:57:39 51° WSW 22:58:42 62° WNW 23:04:01 10° NNE
Cosmos 2369 Rocket 2.6 23:03:27 47° ESE 23:03:27 47° ESE 23:08:47 10° NE
COBE Rocket 3.8 23:07:04 82° S 23:07:17 88° WSW 23:12:27 10° NNW
RESURS DK-1 3.9 23:05:33 10° N 23:09:13 29° NE 23:09:53 28° ENE
Meteor 2-9 Rocket 4.3 23:04:08 10° NNW 23:09:53 65° W 23:10:35 59° SW
SL-8 Rocket 4.3 23:04:06 10° NNW 23:10:16 57° W 23:11:34 48° SW
Cosmos 1943 Rocket 2.1 23:11:55 66° SW 23:12:43 83° WNW 23:18:22 10° NNE
Cosmos 1975 3.5 23:09:05 10° NNW 23:12:12 50° NW 23:12:12 50° NW
Cosmos 2084 Rocket 3.8 23:09:47 10° NW 23:13:20 60° NW 23:13:20 60° NW
ALOS 2 3.2 23:16:05 49° WNW 23:16:05 49° WNW 23:19:53 10° NNW
SL-08 R/B 4.4 23:12:11 10° N 23:18:25 85° E 23:19:37 61° SSE
DNEPR-1 R/B 4.0 23:19:56 66° SW 23:20:45 83° NW 23:25:45 10° NE
Cosmos 44 3.8 23:15:56 10° NW 23:20:48 51° WSW 23:20:48 51° WSW
Meteor 2-4 Rocket 3.6 23:20:31 70° S 23:21:14 86° E 23:26:57 10° NNE
Okean 3 4.5 23:28:08 39° ENE 23:28:08 39° ENE 23:31:35 10° NNE
Okean 1-7 3.3 23:30:15 65° NNE 23:30:15 65° NNE 23:33:57 10° N
Cosmos 372 Rocket 3.8 23:30:36 74° WSW 23:30:53 77° WNW 23:36:01 10° NNE
ATLAS CENTAUR R/B 3.7 23:33:01 13° ENE 23:33:01 13° ENE 23:33:44 10° ENE
Sich 1 Rocket 4.5 23:30:58 10° N 23:35:18 41° ENE 23:35:34 40° E
Cosmos 1125 Rocket 4.1 23:35:50 42° ESE 23:35:50 42° ESE 23:40:44 10° NE
SeaSat 1 2.3 23:33:15 10° NNE 23:38:14 81° ESE 23:38:19 81° SE
Cosmos 1656 Rocket 3.7 23:39:04 57° ESE 23:39:13 57° ESE 23:44:38 10° NE
Cosmos 494 Rocket 4.3 23:34:10 10° NNW 23:39:20 58° ENE 23:40:14 50° ESE
Cosmos 2242 Rocket 3.8 23:40:22 67° NW 23:40:22 67° NW 23:44:29 10° N
Cosmos 2239 Rocket 4.5 23:37:08 10° N 23:43:28 82° E 23:44:52 57° SSE
USA 215 3.1 23:42:21 52° SSE 23:43:54 69° SW 23:50:26 10° NW
Cosmos 1833 4.3 23:40:25 10° NNW 23:46:12 74° ENE 23:47:33 53° SE
ATLAS 2AS CENTAUR R/B 3.5 23:41:21 10° NW 23:47:41 34° WSW 23:47:56 34° WSW
CZ-2D R/B 4.0 23:48:45 10° NE 23:52:24 18° E 23:53:55 16° ESE
